Regional Weather Roundup
Issued by NWS Burlington, VT

Home | Current Version | Previous Version | Text Only | Print | Product List | Glossary On
Versions: 1 2 3 4 5 6 7 8 9 10 11 12 13 14 15 16 17 18 19 20 21 22 23 24 25 26 27
000
ASUS41 KBTV 250610
RWRBTV
VERMONT REGIONAL WEATHER ROUNDUP
NATIONAL WEATHER SERVICE BURLINGTON VT
200 AM EDT SAT OCT 25 2014

NOTE: "FAIR" INDICATES FEW OR NO CLOUDS BELOW 12,000 FEET WITH NO
SIGNIFICANT WEATHER AND/OR OBSTRUCTIONS TO VISIBILITY.

* THESE REPORTS ARE NOT UNDER NWS QUALITY CONTROL AND/OR DO NOT
  REPORT WEATHER SUCH AS PRECIPITATION AND FOG.

VTZ001>019-250700-
_____VERMONT_____


CITY           SKY/WX    TMP DP  RH WIND       PRES   REMARKS
BURLINGTON     CLEAR     38  35  89 CALM      29.79F
6HR MIN TEMP:  38; 6HR MAX TEMP:  47;

MONTPELIER     CLEAR     35  34  96 CALM      29.81F
6HR MIN TEMP:  35; 6HR MAX TEMP:  44;

MORRISVILLE    FOG       33  31  92 CALM      29.80F VSB 1/4
6HR MIN TEMP:  33; 6HR MAX TEMP:  45;

ST. JOHNSBURY*   N/A     38  37  97 MISG      29.77
6HR MIN TEMP:  37; 6HR MAX TEMP:  45;

LYNDONVILLE*   FAIR      38  33  82 CALM      29.79S
6HR MIN TEMP:  37; 6HR MAX TEMP:  44;

MIDDLEBURY*    FAIR      36  36 100 CALM      29.80S
6HR MIN TEMP:  36; 6HR MAX TEMP:  46;

RUTLAND*       CLEAR     37  37 100 SE6       29.80F
6HR MIN TEMP:  37; 6HR MAX TEMP:  45;

SPRINGFIELD    CLEAR     40  39  97 E6        29.79F
6HR MIN TEMP:  39; 6HR MAX TEMP:  48;

HIGHGATE*      FAIR      37  36  95 CALM      29.77F
6HR MIN TEMP:  37; 6HR MAX TEMP:  42;

NEWPORT*       FAIR      34  33  96 S5        29.77F
6HR MIN TEMP:  33; 6HR MAX TEMP:  42;

BENNINGTON     CLEAR     40  38  93 S6        29.83S
6HR MIN TEMP:  39; 6HR MAX TEMP:  47;

SUTTON*          N/A     36 N/A N/A MISG        N/A

_____LAKE CHAMPLAIN_____


CITY           SKY/WX    TMP DP  RH WIND       PRES   REMARKS
COLCHESTER RF*   N/A     50  45  81 SW16        N/A
DIAMOND ISL*     N/A     43  41  93 SE6         N/A

$$

NYZ007-026>031-035-052-083-250700-
_____NORTHERN NEW YORK_____


CITY           SKY/WX    TMP DP  RH WIND       PRES   REMARKS
PLATTSBURGH    CLEAR     40  39  97 S3        29.77F
6HR MIN TEMP:  38; 6HR MAX TEMP:  49;

SARANAC LAKE   MOCLDY    33  32  96 S5        29.80F FOG
6HR MIN TEMP:  31; 6HR MAX TEMP:  41;

MASSENA        CLEAR     46  43  89 SW9       29.81F
6HR MIN TEMP:  44; 6HR MAX TEMP:  50;

OGDENSBURG*    CLEAR     39  39 100 S5        29.82F FOG
POTSDAM*       CLEAR     45  45 100 SW8       29.82F
WATERTOWN      PTCLDY    45  39  79 SW3       29.85F
6HR MIN TEMP:  44; 6HR MAX TEMP:  50;

FT DRUM        PTCLDY    47  44  88 W8        29.84S
6HR MIN TEMP:  47; 6HR MAX TEMP:  49;

ALBANY         PTCLDY    41  39  93 CALM      29.84F
6HR MIN TEMP:  39; 6HR MAX TEMP:  47;

GLENS FALLS    CLOUDY    42  42 100 CALM      29.82F FOG
6HR MIN TEMP:  41; 6HR MAX TEMP:  47;


$$
NHZ002-005-011-250700-
_____NEW HAMPSHIRE_____


CITY           SKY/WX    TMP DP  RH WIND       PRES   REMARKS
LEBANON        CLEAR     38  35  89 CALM      29.77F
6HR MIN TEMP:  38; 6HR MAX TEMP:  48;

KEENE          MOCLDY    43  36  75 CALM      29.79F
6HR MIN TEMP:  43; 6HR MAX TEMP:  48;

MT WASHINGTON  MOCLDY    28  23  80 N48         N/A  WCI   9
6HR MIN TEMP:  26; 6HR MAX TEMP:  36;

PLYMOUTH       FAIR      46  40  79 W9        29.74F
6HR MIN TEMP:  46; 6HR MAX TEMP:  47;

WHITEFIELD     PTCLDY    41  39  93 CALM      29.77F
6HR MIN TEMP:  41; 6HR MAX TEMP:  44; 6HR PCP:  0.02;


$$

_____REGIONAL QUEBEC LOCATIONS_____


CITY           SKY/WX    TMP DP  RH WIND       PRES   REMARKS
MONTREAL       MOCLDY    46  43  87 SW6       29.76F
QUEBEC CITY    PTCLDY    37  32  81 N2        29.74F
SHERBROOKE     CLEAR     34  34 100 CALM      29.76F

_____REGIONAL ONTARIO LOCATIONS_____


CITY           SKY/WX    TMP DP  RH WIND       PRES   REMARKS
OTTAWA         CLEAR     43  34  70 W12       29.81R

______KEY______
VSB  - VISIBILITY IN MILES
WCI  - WIND CHILL INDEX
HX   - HEAT INDEX
$$
NNNN



USA.gov is the U.S. government's official web portal to all federal, state and local government web resources and services.